Regional Weather Roundup
Issued by NWS Goodland, KS

Home | Current Version | Previous Version | Graphics & Text | Print | Product List | Glossary On
Versions: 1 2 3 4 5 6 7 8 9 10 11 12 13 14 15 16 17 18 19 20 21 22 23 24 25 26 27 28 29 30 31 32 33 34 35 36 37 38 39 40 41 42 43 44 45 46 47 48 49 50
000
ASUS43 KGLD 051808
RWRGLD

GOODLAND FORECAST AREA HOURLY WEATHER ROUNDUP
NATIONAL WEATHER SERVICE GOODLAND KS
1100 AM MST MON DEC 05 2016

...OFFICIAL OBSERVATIONS...

CITY           SKY/WX    TMP DP  RH WIND       PRES   REMARKS
GOODLAND KS    SUNNY     60  17  18 NE12      29.56S
HILL CITY KS   SUNNY     46  27  47 CALM      29.60S
IMPERIAL NEB   CLOUDY    49  20  31 W8        29.59S
MCCOOK NEB     MOSUNNY   44  22  41 N5        29.59F
AKRON CO       SUNNY     52  19  27 W9        29.60F
BURLINGTON CO  SUNNY     59  16  18 NE14      29.58F
LIMON CO       SUNNY     56  18  22 NW16      29.61F
$$

...UNOFFICIAL OBSERVATIONS...

CITY           SKY/WX    TMP DP  RH WIND       PRES   REMARKS
COLBY KS       SUNNY     57  27  30 N14       29.56F
LENORA KS        N/A     47  32  56 MISG        N/A
NORTON KS      SUNNY     48  19  32 E8        29.59F
SHARON SPRINGS   N/A     60  21  22 CALM        N/A
TRENTON NEB      N/A     45  32  60 CALM        N/A
KIT CARSON CO    N/A     58  24  27 MISG        N/A
YUMA CO        PTSUNNY   46  21  36 W6        29.60S
$$




USA.gov is the U.S. government's official web portal to all federal, state and local government web resources and services.